User: anonymous   Login
Location: Albany
(35.0170°S, 117.8920°E)
Time: 03:56:22
(UTC+08:00)
Language:

Transit 4A - Orbit

View from above orbital plane
View from above orbital plane
View from above satellite
View from above satellite

Ground track
Ground track

The orbit data is extracted from the following two-line orbital elements,

1 00116U 61015A   21020.77962221 -.00000083  00000-0 -46018-5 0  9999
2 00116  66.8084  36.9258 0079824 220.5704 138.9410 13.91781783 22069
Epoch (UTC): 20 January 2021 18:42:39
Eccentricity: 0.0079824
inclination: 66.8084°
perigee height: 864 km
apogee height: 980 km
right ascension of ascending node: 36.9258°
argument of perigee: 220.5704°
revolutions per day: 13.91781783
mean anomaly at epoch: 138.9410°
orbit number at epoch: 2206

The dashed part of the orbit path shows where the satellite is in the earth's shadow,  

DLR